BEIDOU-3 G2

Last updated on Sun Oct 06 2024 00:02:42 GMT+0000 (Coordinated Universal Time)

1 45344U 20017A 24279.55670538 -.00000131 00000+0 00000+0 0 9997 2 45344 2.4620 33.5037 0003586 189.6539 72.0286 1.00271864 17046
UTC large
Height (km)
Speed (km/s)
/
Latitude / Longitude
Inclination (degrees)
Orbital Period (minutes)
Azimuth
Elevation
Range (km)
Doppler Factor

Next 0 passes for location: London (51.5072 / 0.1276)

Sorry there are no passes over London.